Location: Unspecified
(43.4680°N, 87.1740°E)
Time: 08:08:30
(UTC+00:00)

NOSS 0 Rocket - Pass Details

Date: 05 August 2021
Orbit: 936 x 954 km, 70.0° (Epoch: 18 September)

Event Time Altitude Azimuth Distance (km) Brightness Sun altitude
Rises 16:15:45 0° 334° (NNW) 3,635 8.4 -23.6°
Reaches altitude 10° 16:18:18 10° 337° (NNW) 2,684 7.4 -23.9°
Maximum altitude 16:24:33 73° 62° (ENE) 992 3.9 -24.4°
Enters shadow 16:25:55 54° 126° (SE) 1,134 4.0 -24.6°
